Location: Brienzwiler
(46.7508°N, 8.1014°E)
Time: 17:09:50
(UTC+00:00)

SPOT 5 - Pass Details

Date: 05 July 2020
Orbit: 622 x 815 km, 98.3° (Epoch: 11 August)

Event Time Altitude Azimuth Distance (km) Brightness Sun altitude
Exits shadow 21:13:54 18° 172° (S) 1,822 4.4 -13.9°
Maximum altitude 21:17:45 76° 257° (WSW) 767 3.0 -14.2°
Drops below altitude 10° 21:22:34 10° 343° (NNW) 2,194 6.7 -14.6°
Sets 21:24:47 0° 345° (NNW) 3,087 7.7 -14.8°
